Humidity-temperature Sensor

Selected Measurement Type: Air Temperature

 
Air Temperature [°C]     6 entries per hour
Showing data from 10/19/2015 (00:00:00 Z) to 10/18/2015 (00:01:00 Z)
Previous Next [ Day | 3-Days | 7-Days ]
First Last
Prev [ Day | 3-Days | 7-Days ] Next
First Last

Start Time:     :
End Time:     :     
Time (in GMT) :00 :50 :40 :30 :20 :10
Previous Next [ Day | 3-Days | 7-Days ]
First Last
Prev [ Day | 3-Days | 7-Days ] Next
First Last


123 => good data
MM => data is determined as missing
-- => data not received/configured
Back to Top Back to Top
10/19/2015 00:00 to 23:10 29.00 28.82 28.85 28.76 28.79 28.71
10/18/2015 23:00 to 22:10 28.55 28.50 28.48 28.44 28.43 28.54
10/18/2015 22:00 to 21:10 28.44 28.29 28.40 28.28 28.36 28.21
10/18/2015 21:00 to 20:10 28.48 28.22 28.36 28.38 28.26 28.55
10/18/2015 20:00 to 19:10 28.54 28.50 28.46 28.40 28.53 28.39
10/18/2015 19:00 to 18:10 28.53 28.51 28.57 28.58 28.52 28.63
10/18/2015 18:00 to 17:10 28.67 28.36 28.35 28.57 28.47 28.55
10/18/2015 17:00 to 16:10 28.53 28.58 28.67 28.58 28.50 28.51
10/18/2015 16:00 to 15:10 28.38 28.27 28.41 28.31 28.04 28.09
10/18/2015 15:00 to 14:10 27.96 28.16 27.99 28.12 28.10 28.02
10/18/2015 14:00 to 13:10 28.17 28.10 28.14 28.06 28.27 28.05
10/18/2015 13:00 to 12:10 28.02 27.97 28.00 27.98 28.08 28.18
10/18/2015 12:00 to 11:10 28.08 28.10 28.04 28.11 28.00 28.03
10/18/2015 11:00 to 10:10 28.05 28.12 28.06 28.11 28.11 28.10
10/18/2015 10:00 to 9:10 28.23 28.07 28.15 28.15 28.15 28.21
10/18/2015 09:00 to 8:10 28.17 28.23 28.20 28.20 28.27 28.24
10/18/2015 08:00 to 7:10 28.23 28.41 28.37 28.30 28.31 28.31
10/18/2015 07:00 to 6:10 28.31 28.50 28.41 28.43 28.30 28.36
10/18/2015 06:00 to 5:10 28.39 28.42 28.40 28.34 28.44 28.49
10/18/2015 05:00 to 4:10 28.44 28.45 28.45 28.40 28.49 28.36
10/18/2015 04:00 to 3:10 28.35 28.45 28.39 28.37 28.39 28.47
10/18/2015 03:00 to 2:10 28.32 28.40 28.37 28.63 28.69 28.54
10/18/2015 02:00 to 1:10 28.67 28.66 28.68 28.49 28.63 28.49
10/18/2015 01:00 to 0:10 28.65 28.57 28.57 28.59 28.41 28.65